Location: Carrizalito
(10.3833°N, 67.0217°W)
Time: 10:30:35
(UTC+00:00)

Hubble Space Telescope - Visible Passes

Search period start: 08 December 2022 00:00
Search period end: 18 December 2022 00:00
Orbit: 530 x 534 km, 28.5° (Epoch: 07 December)

Date Brightness Start Highest point End Pass type
(mag) Time Alt. Az. Time Alt. Az. Time Alt. Az.
15 Dec 3.3 10:05:04 10° NNE 10:05:19 10° NNE 10:05:33 10° NNE visible
16 Dec 3.1 09:51:09 10° N 09:52:46 12° NNE 09:54:22 10° NE visible
17 Dec 3.0 09:38:02 10° NNW 09:40:11 14° NNE 09:42:28 10° NE visible
